EZY63DK EGKK-EDDH

Flight info

Callsign EZY63DK
Flight time N/A
Altitude 39000
Route FRANE M604 PAAVO Q295 SOMVA DCT MAVAS DCT TULIP Y12 SPY N873 ANDIK M105 RIBSO
Aircraft A20N/M-SDE2E3FGHIJ1RWXYZ/LB1

Departure

Time 2026-04-17 10:51
Airport London Gatwick Airport (EGKK)

Arrival

Time N/A
Airport Hamburg Helmut Schmidt Airport (EDDH)
Time Latitude Longitude Altitude Speed Heading
2026-04-17 10:27 51.15872 -0.17421 208 ft 0 kts 348°
2026-04-17 10:39 51.15869 -0.17420 204 ft 2 kts 348°
2026-04-17 10:40 51.15854 -0.17415 209 ft 2 kts 350°
2026-04-17 10:40 51.15839 -0.17411 204 ft 2 kts 352°
2026-04-17 10:40 51.15825 -0.17408 204 ft 2 kts 354°
2026-04-17 10:40 51.15818 -0.17407 204 ft 3 kts 354°
2026-04-17 10:41 51.15802 -0.17398 214 ft 3 kts 317°
2026-04-17 10:41 51.15789 -0.17379 207 ft 3 kts 308°
2026-04-17 10:41 51.15780 -0.17354 206 ft 3 kts 276°
2026-04-17 10:41 51.15782 -0.17327 207 ft 3 kts 241°
2026-04-17 10:42 51.15788 -0.17301 208 ft 2 kts 262°
2026-04-17 10:42 51.15789 -0.17300 208 ft 0 kts 262°
2026-04-17 10:45 51.15788 -0.17307 209 ft 0 kts 262°
2026-04-17 10:45 51.15786 -0.17331 208 ft 5 kts 261°
2026-04-17 10:45 51.15764 -0.17388 212 ft 6 kts 214°
2026-04-17 10:45 51.15685 -0.17366 204 ft 11 kts 168°
2026-04-17 10:46 51.15630 -0.17348 211 ft 5 kts 168°
2026-04-17 10:46 51.15620 -0.17345 211 ft 5 kts 168°
2026-04-17 10:46 51.15555 -0.17322 207 ft 13 kts 167°
2026-04-17 10:46 51.15454 -0.17285 211 ft 16 kts 167°
2026-04-17 10:47 51.15373 -0.17257 209 ft 8 kts 168°
2026-04-17 10:47 51.15332 -0.17242 214 ft 5 kts 160°
2026-04-17 10:47 51.15324 -0.17183 211 ft 7 kts 81°
2026-04-17 10:47 51.15338 -0.17085 206 ft 11 kts 77°
2026-04-17 10:48 51.15358 -0.16955 205 ft 14 kts 76°
2026-04-17 10:48 51.15361 -0.16932 215 ft 0 kts 76°
2026-04-17 10:48 51.15362 -0.16929 215 ft 1 kts 76°
2026-04-17 10:49 51.15368 -0.16880 206 ft 9 kts 83°
2026-04-17 10:49 51.15319 -0.16816 205 ft 12 kts 185°
2026-04-17 10:49 51.15299 -0.16822 207 ft 0 kts 190°
2026-04-17 10:50 51.15298 -0.16822 207 ft 1 kts 190°
2026-04-17 10:50 51.15213 -0.16807 213 ft 23 kts 167°
2026-04-17 10:50 51.15101 -0.16981 211 ft 41 kts 256°
2026-04-17 10:51 51.14974 -0.17881 210 ft 121 kts 258°
2026-04-17 10:51 51.14768 -0.19477 490 ft 157 kts 257°
2026-04-17 10:51 51.14569 -0.21205 1389 ft 162 kts 255°
2026-04-17 10:51 51.14337 -0.22992 2286 ft 168 kts 255°
2026-04-17 10:52 51.14091 -0.24848 3054 ft 174 kts 254°
2026-04-17 10:52 51.13797 -0.26783 3660 ft 190 kts 252°
2026-04-17 10:52 51.13216 -0.28781 4125 ft 209 kts 225°
2026-04-17 10:52 51.12177 -0.30439 4982 ft 216 kts 232°
2026-04-17 10:53 51.11482 -0.32620 5676 ft 232 kts 256°
2026-04-17 10:53 51.11574 -0.35195 6561 ft 240 kts 286°
2026-04-17 10:53 51.12491 -0.37404 7542 ft 244 kts 314°
2026-04-17 10:53 51.13996 -0.38661 8558 ft 250 kts 343°
2026-04-17 10:54 51.15734 -0.38618 9591 ft 254 kts 12°
2026-04-17 10:54 51.17285 -0.37276 10465 ft 262 kts 39°
2026-04-17 10:54 51.18632 -0.35140 10850 ft 285 kts 46°
2026-04-17 10:54 51.19993 -0.32689 11212 ft 307 kts 48°
2026-04-17 10:55 51.21447 -0.30016 11532 ft 331 kts 48°
2026-04-17 10:55 51.23024 -0.27161 11814 ft 355 kts 47°
2026-04-17 10:55 51.24718 -0.24143 12211 ft 372 kts 47°
2026-04-17 10:55 51.26465 -0.21055 12969 ft 377 kts 47°
2026-04-17 10:56 51.28214 -0.17953 13707 ft 383 kts 47°
2026-04-17 10:56 51.30011 -0.14767 14435 ft 388 kts 47°
2026-04-17 10:56 51.31829 -0.11547 15136 ft 392 kts 47°
2026-04-17 10:56 51.33667 -0.08295 15840 ft 396 kts 47°
2026-04-17 10:57 51.35527 -0.05005 16518 ft 401 kts 48°
2026-04-17 10:57 51.37404 -0.01680 17188 ft 405 kts 48°
2026-04-17 10:57 51.39326 0.01729 17901 ft 408 kts 48°
2026-04-17 10:57 51.41239 0.05126 18555 ft 413 kts 48°
2026-04-17 10:58 51.43146 0.08516 19121 ft 417 kts 48°
2026-04-17 10:58 51.45096 0.11985 19695 ft 421 kts 48°
2026-04-17 10:58 51.47064 0.15493 20259 ft 425 kts 48°
2026-04-17 10:58 51.49049 0.19035 20809 ft 429 kts 48°
2026-04-17 10:59 51.51055 0.22620 21363 ft 433 kts 48°
2026-04-17 10:59 51.53077 0.26239 21918 ft 437 kts 48°
2026-04-17 10:59 51.55117 0.29896 22462 ft 441 kts 48°
2026-04-17 10:59 51.57175 0.33590 23009 ft 445 kts 48°
2026-04-17 11:00 51.59252 0.37323 23477 ft 452 kts 48°
2026-04-17 11:00 51.61354 0.41107 23984 ft 455 kts 48°
2026-04-17 11:00 51.63469 0.44921 24458 ft 458 kts 48°
2026-04-17 11:00 51.65594 0.48761 24884 ft 461 kts 48°
2026-04-17 11:01 51.67727 0.52621 25420 ft 462 kts 47°
2026-04-17 11:01 51.69869 0.56503 25838 ft 465 kts 47°
2026-04-17 11:01 51.72028 0.60419 26246 ft 468 kts 47°
2026-04-17 11:01 51.74193 0.64354 26672 ft 471 kts 47°
2026-04-17 11:02 51.76375 0.68326 27091 ft 474 kts 47°
2026-04-17 11:02 51.78569 0.72326 27487 ft 477 kts 47°
2026-04-17 11:02 51.80775 0.76355 27881 ft 480 kts 47°
2026-04-17 11:02 51.83001 0.80413 28203 ft 484 kts 45°
2026-04-17 11:03 51.85442 0.84168 28563 ft 485 kts 39°
2026-04-17 11:03 51.87759 0.88164 28906 ft 490 kts 52°